SCP
0 0 0 0 0 0 0 0 0 0 0 0 0 0 0 0 0 0 0 0 0 0 0 0 0 0 0 0 0 0 0 0 0 0 0 0 0 0 0 0 0 0 0
0 0 0 0 0 0 0 0 0 0 0 0 0 0 0 0 0 0 0 0 0 0 0 0 0 0 0 0 0 0 0 0 0 0 0 0 0 0 0 0 0 0 0
0 0 0 0 0 0 0 0 0 0 0 0 0 0 0 0 0 0 0 0 0 0 0 0 0 0 0 0 0 0 0 0 0 0 0 0 0 0 0 0 0 0 0
0 0 0 0 0 0 0 0 0 0 0 0 0 0 0 0 0 0 0 0 0 0 0 0 0 0 0 0 0 0 0 0 0 0 0 0 0 0 0 0 0 0 0
0 0 0 0 0 0 0 0 0 0 0 0 0 0 0 0 0 0 0 0 0 0 0 0 0 0 0 0 0 0 0 0 0 0 0 0 0 0 0 0 0 0 0
0 0 0 0 0 0 0 0 0 0 0 0 0 0 0 0 0 0 0 0 0 0 0 0 0 0 0 0 0 0 0 0 0 0 0 0 0 0 0 0 0 0 0
0 0 0 0 0 0 0 0 0 0 0 0 0 0 0 0 0 0 0 0 0 0 0 0 0 0 0 0 0 0 0 0 0 0 0 0 0 0 0 0 0 0 0
0 0 0 0 0 0 0 0 0 0 0 0 0 0 0 0 0 0 0 0 0 0 0 0 0 0 0 0 0 0 0 0 0 0 0 0 0 0 0 0 0 0 0
0 0 0 0 0 0 0 0 0 0 0 0 0 0 0 0 0 0 0 0 0 0 0 0 0 0 0 0 0 0 0 0 0 0 0 0 0 0 0 0 0 0 0
0 0 0 0 0 0 0 0 0 0 0 0 0 0 0 0 0 0 0 0 0 0 0 0 0 0 0 0 0 0 0 0 0 0 0 0 0 0 0 0 0 0 0
0 0 0 0 0 0 0 0 0 0 0 0 0 0 0 0 0 0 0 0 0 0 0 0 0 0 0 0 0 0 0 0 0 0 0 0 0 0 0 0 0 0 0
0 0 0 0 0 0 0 0 0 0 0 0 0 0 0 0 0 0 0 0 0 0 0 0 0 0 0 0 0 0 0 0 0 0 1 1 1 1 0 0 0 0 0
0 0 0 0 0 0 0 0 0 0 0 0 0 0 0 0 0 0 0 0 0 0 0 0 0 0 0 0 0 0 0 0 0 0 0 1 1 1 1 1 0 0 0
0 0 0 0 0 0 0 0 0 0 0 0 0 0 0 0 0 0 0 0 0 0 0 0 0 0 0 0 0 0 0 0 0 0 0 0 1 1 1 1 1 0 0
0 0 0 0 0 0 0 0 0 0 0 0 0 0 0 0 0 0 0 0 0 0 0 0 0 0 0 0 0 0 0 0 0 0 0 0 0 1 1 1 1 0 0
0 0 0 0 0 0 0 0 0 0 0 0 0 0 0 0 0 0 0 0 0 0 0 0 0 0 0 0 0 0 0 0 0 0 0 0 0 0 0 1 1 0 0
0 0 0 0 0 0 0 0 0 0 0 0 0 0 0 0 0 0 0 0 0 0 0 0 0 0 0 0 0 0 0 0 0 0 0 0 0 0 0 0 0 0 0
0 0 0 0 0 0 0 0 0 0 0 0 0 0 0 0 0 0 0 0 0 0 0 0 0 0 0 0 0 0 0 0 0 0 0 0 0 0 0 0 0 0 0
0 0 0 0 0 0 0 0 0 0 0 0 0 0 0 0 0 0 0 0 0 0 0 0 0 0 0 0 0 0 0 0 0 0 0 0 0 0 0 0 0 0 0
0 0 0 0 0 0 0 0 0 0 0 0 0 0 0 0 0 0 0 0 0 0 0 0 0 0 0 0 0 0 0 0 0 0 0 0 0 0 0 0 0 0 0
0 0 0 0 0 0 0 0 0 0 0 0 0 0 0 0 0 0 0 0 0 0 0 0 0 0 0 0 0 0 0 0 0 0 0 0 0 0 0 0 0 0 0
0 0 0 0 0 0 0 0 0 0 0 0 0 0 0 0 0 0 0 0 0 0 0 0 0 0 0 0 0 0 0 0 0 0 0 0 0 0 0 0 0 0 0
0 0 0 0 0 0 0 0 0 0 0 0 0 0 0 0 0 0 0 0 0 0 0 0 0 0 0 0 0 0 0 0 0 0 0 0 0 0 0 0 0 0 0
0 0 0 0 0 0 0 0 0 0 0 0 0 0 0 0 0 0 0 0 0 0 0 0 0 0 0 0 0 0 0 0 0 0 0 0 0 0 0 0 0 0 0
0 0 0 0 0 0 0 0 0 0 0 0 0 0 0 0 0 0 0 0 0 0 0 0 0 0 0 0 0 0 0 0 0 0 0 0 0 0 0 0 0 0 0
0 0 0 0 0 0 0 0 0 0 0 0 0 0 0 0 0 0 0 0 0 0 0 0 0 0 0 0 0 0 0 0 0 0 0 0 0 0 0 0 0 0 0
Wind_Speed
2 2 2 2 3 2 2 2 2 3 3 2 3 2 2 3 4 4 3 11 12 13 14 13 13 12 10 9 9 10 10 10 11 11 10 11 11 11 11 11 11 11 10
1 2 2 2 2 2 2 3 3 3 3 2 2 2 2 2 3 4 4 7 12 12 13 14 14 13 12 11 10 10 10 11 11 11 11 12 12 12 12 11 11 11 10
2 1 1 1 2 2 2 2 3 2 2 3 2 2 2 2 2 3 4 3 5 10 12 13 13 13 13 12 11 11 11 11 11 11 11 12 12 12 12 12 11 11 10
3 2 2 2 2 1 1 1 2 2 2 2 2 2 1 1 1 2 2 3 3 4 8 12 12 13 13 14 13 13 12 12 12 12 12 12 12 12 12 12 11 11 10
4 3 2 2 2 1 1 1 1 1 2 2 2 2 1 1 1 2 2 3 4 4 4 8 12 12 13 14 14 14 14 13 13 13 13 12 12 12 12 12 11 11 10
5 3 2 3 3 2 1 1 1 1 1 2 2 2 2 2 2 2 3 3 3 5 5 5 6 9 13 13 13 15 15 15 15 14 14 14 13 13 13 13 12 11 11
4 3 3 3 3 2 2 2 1 1 1 0 0 1 2 2 3 3 3 3 4 5 5 6 5 5 6 12 13 14 15 16 16 16 16 15 14 14 14 14 13 12 12
4 3 3 3 3 2 3 3 1 1 1 1 1 1 2 2 2 3 3 4 5 4 5 7 6 7 6 5 9 14 14 15 17 17 17 16 15 15 14 14 14 13 13
3 3 3 2 3 2 2 3 1 1 0 1 1 2 1 2 2 2 2 3 3 3 4 4 6 7 7 6 6 12 14 14 16 18 18 17 16 16 15 15 14 14 13
4 3 3 3 3 2 2 3 2 1 0 0 1 1 2 2 1 2 2 1 3 4 4 5 6 7 7 6 8 12 15 15 16 19 19 18 18 17 17 16 15 14 14
4 3 3 3 3 2 2 3 2 1 0 1 1 1 1 1 2 2 3 2 2 2 3 4 4 5 7 7 7 11 16 16 17 18 19 20 20 19 19 17 16 16 15
3 4 3 3 3 2 3 2 2 2 1 1 1 1 2 1 2 2 3 2 3 3 3 3 4 5 5 6 10 14 17 18 19 19 18 18 19 20 20 19 19 18 17
3 4 3 3 3 3 3 2 2 2 2 1 2 2 2 3 2 2 2 2 3 2 2 2 4 5 6 5 7 13 16 18 19 19 18 17 17 18 20 20 20 19 19
3 3 4 4 4 3 3 2 2 2 2 2 2 2 2 3 3 3 3 2 2 2 2 4 2 4 5 5 8 13 10 17 18 19 19 18 17 17 18 18 19 19 19
2 3 3 4 4 4 3 2 2 2 3 2 3 3 2 3 3 3 3 3 3 3 3 4 3 3 3 4 7 7 8 14 18 19 19 19 18 17 17 17 17 16 16
3 3 4 3 4 3 3 2 2 3 3 3 2 3 3 3 3 3 3 3 4 4 4 3 3 3 3 4 7 7 8 14 18 19 19 19 19 18 18 17 16 16 15
2 3 3 3 3 3 3 3 3 3 3 4 4 3 4 4 3 2 2 3 3 4 5 4 3 3 4 4 4 5 5 6 8 17 18 19 18 18 18 18 17 16 16
2 2 2 3 3 3 3 3 3 4 4 4 5 4 5 4 3 3 2 3 3 4 4 5 3 3 4 4 4 5 5 6 6 12 18 19 18 18 18 18 18 17 17
2 2 2 2 2 3 3 3 2 4 4 4 5 4 5 4 4 3 3 3 3 3 3 3 3 2 3 2 3 4 4 4 5 8 14 17 18 18 18 18 18 18 18
1 2 2 2 2 3 3 3 3 4 5 5 5 5 5 4 4 4 3 3 3 3 2 3 3 3 3 2 2 3 3 4 5 5 7 10 13 17 18 19 19 19 19
2 2 2 3 3 3 3 3 4 4 5 6 6 5 5 6 6 4 3 3 3 2 2 3 3 3 3 2 3 3 4 3 4 4 4 5 6 8 10 15 18 20 19
3 3 3 4 4 4 6 6 4 3 4 5 5 6 6 6 6 7 7 5 4 4 3 3 4 4 5 4 3 3 3 3 3 3 5 5 6 7 8 8 14 18 20
3 3 4 4 5 6 9 8 7 3 3 4 4 4 4 5 6 4 6 5 5 6 6 4 5 6 5 5 4 4 4 4 5 3 4 5 5 7 6 8 15 18 20
4 4 5 5 5 7 9 8 7 3 3 4 4 4 4 4 5 5 3 3 3 4 4 4 4 5 5 4 5 5 4 4 3 2 4 4 4 5 5 6 13 18 20
4 4 5 5 5 7 10 8 5 1 3 4 4 4 4 4 8 7 3 4 4 4 4 5 5 6 7 8 6 3 3 4 4 3 4 4 3 3 4 6 9 16 18
5 5 5 5 6 7 9 9 6 2 2 4 4 4 6 6 8 7 3 3 5 5 4 5 5 5 4 5 6 5 4 4 3 3 4 4 3 3 3 3 5 8 11
Wind_Direction
273 261 257 247 238 226 217 221 223 233 227 224 236 240 249 242 226 219 221 210 199 192 185 183 182 180 179 178 177 173 172 172 167 163 159 155 153 152 148 146 145 143 141
317 298 279 261 252 241 228 221 221 225 227 221 236 236 246 261 235 219 214 209 202 195 189 187 187 185 185 183 180 177 175 175 171 169 166 161 158 156 154 152 152 150 148
359 339 317 291 269 254 239 229 229 223 229 229 232 238 227 248 248 220 213 204 201 201 195 192 191 190 190 188 184 180 180 177 175 176 172 167 165 163 161 160 159 157 153
7 2 356 323 305 291 261 236 228 227 228 233 233 235 224 239 279 225 213 217 202 201 204 200 196 195 196 193 189 185 184 182 179 181 176 171 169 169 167 165 165 163 161
7 16 4 339 341 348 325 291 253 232 229 238 242 233 214 209 240 251 220 223 216 207 202 207 203 200 201 199 195 191 188 187 185 183 180 176 175 175 173 172 172 171 169
3 13 11 0 4 9 352 323 282 254 234 238 259 262 238 228 220 223 224 217 220 218 209 207 204 207 205 203 201 198 194 192 191 189 187 184 183 182 180 180 179 180 177
360 11 12 2 8 6 343 333 308 296 284 219 56 313 287 243 229 223 219 212 217 221 209 205 202 201 206 207 205 204 201 197 195 195 193 191 189 188 188 187 187 187 185
355 9 14 0 358 1 1 2 8 356 321 89 113 50 330 329 282 232 217 218 214 210 210 209 202 203 201 197 207 206 205 202 200 199 199 196 193 193 193 193 194 193 191
355 1 8 6 2 10 357 350 360 65 297 282 165 157 172 247 292 291 228 229 217 212 214 205 206 207 207 202 200 209 207 204 205 204 203 200 198 197 197 198 198 198 196
350 354 5 9 7 5 353 337 9 12 125 279 292 224 209 201 215 307 309 249 222 221 218 215 210 208 209 206 208 206 206 205 208 209 207 205 203 202 201 202 202 201 199
343 346 350 357 356 346 334 335 344 341 262 213 220 238 259 249 207 209 278 303 287 239 223 218 213 212 210 207 208 210 207 205 208 211 211 209 207 205 205 204 204 203 201
333 336 338 341 334 327 321 322 322 321 299 269 240 211 202 218 220 206 239 268 277 267 242 221 216 217 211 208 216 213 208 207 208 211 212 211 210 208 207 207 206 206 205
320 316 328 327 323 317 313 322 331 322 308 297 264 242 227 223 212 204 217 245 259 280 273 246 222 214 213 208 217 213 212 210 209 211 212 211 210 210 210 209 208 208 207
282 299 322 327 329 330 336 345 348 327 323 307 292 272 253 247 223 206 201 204 249 273 266 257 253 223 218 209 217 211 213 211 212 212 213 211 209 209 209 209 210 209 209
299 321 332 335 336 346 354 359 341 329 332 316 298 284 266 256 241 228 214 199 203 240 258 249 245 241 224 216 218 212 212 212 212 214 214 211 209 208 208 208 209 208 207
317 329 335 336 340 348 353 354 334 329 340 324 305 301 287 271 263 240 223 217 210 215 244 248 238 253 245 237 224 216 220 216 213 213 214 212 209 208 207 206 205 204 202
320 331 331 338 343 347 349 355 345 346 343 329 325 313 298 287 273 260 240 225 219 213 241 258 242 246 240 243 235 224 222 219 216 214 214 213 210 209 207 206 204 202 199
330 336 343 350 346 345 346 352 343 343 335 324 318 316 307 306 290 271 252 239 230 219 224 252 257 241 238 237 230 227 227 221 217 215 213 214 212 210 208 207 204 200 198
339 349 359 351 338 328 327 323 319 321 318 310 305 303 299 300 292 284 267 250 242 239 222 235 255 245 246 239 234 235 228 224 220 220 216 216 214 212 210 208 204 200 197
296 313 315 310 303 302 305 302 311 314 313 310 303 295 292 284 272 271 268 258 249 247 239 240 252 253 249 242 219 228 233 221 222 217 217 215 215 215 212 209 205 201 197
264 272 285 298 299 288 276 278 295 304 310 314 314 307 300 301 294 279 271 252 243 242 241 239 250 254 248 233 225 216 229 227 224 205 206 210 207 213 213 214 210 206 200
271 276 276 281 288 286 295 290 291 293 303 309 312 314 311 316 326 328 315 287 251 237 237 234 241 245 249 239 232 226 221 217 231 203 197 216 203 213 211 209 209 206 202
253 268 271 273 276 279 286 293 298 296 297 304 308 314 323 332 337 327 321 316 296 280 252 235 242 244 244 234 224 231 226 221 225 201 188 222 207 219 212 211 205 202 201
243 253 261 267 272 277 281 285 292 297 298 302 304 304 306 314 320 324 321 324 312 296 277 258 244 249 249 245 227 228 228 235 250 220 187 215 205 215 207 207 204 201 199
244 247 253 260 265 276 279 276 276 275 292 301 305 307 308 304 315 329 327 317 314 307 300 291 274 266 263 258 239 223 221 222 235 222 196 205 204 205 210 212 206 201 199
240 251 260 258 255 264 273 270 256 225 276 294 304 307 311 311 313 325 309 292 295 294 302 309 303 298 283 274 252 225 218 223 224 227 200 193 191 180 215 218 204 200 201